{"data":{"norad_id":62810,"epoch":"2026-09-21T20:28:08.842368Z","epoch_age_seconds":54320,"freshness":"FRESH","line1":"1 62810U 25018E   26264.85288012  .00011588  00000+0  35353-3 0  9991","line2":"2 62810  53.1600 117.6080 0001065 104.0367 256.0755 15.34403886 93217","mean_motion":15.34403886,"eccentricity":0.0001065,"inclination_deg":53.16,"raan_deg":117.608,"arg_perigee_deg":104.0367,"mean_anomaly_deg":256.0755,"bstar":0.00035353,"rev_number":9321,"period_min":93.847520404416,"perigee_km":461.96314196503,"apogee_km":463.42023847605,"semimajor_km":6840.8286902205,"source":"CELESTRAK","updated_at":"2026-09-22T09:00:49.667142Z"}}